User: anonymous   Login
Location: Unspecified
(0.0000°N, 0.0000°E)
Time: 08:37:31
(UTC+00:00)
Language:

LITUANICASAT 2 - Orbit

View from above orbital plane
View from above orbital plane
View from above satellite
View from above satellite

Ground track
Ground track

The orbit data is extracted from the following two-line orbital elements,

1 42768U 17036D   18267.89935894 +.00002612 +00000-0 +11790-3 0  9995
2 42768 097.3931 325.6614 0017260 079.1101 281.2076 15.21744325069727
Epoch (UTC): 24 September 2018 21:35:04
Eccentricity: 0.0017260
inclination: 97.3931°
perigee height: 489 km
apogee height: 512 km
right ascension of ascending node: 325.6614°
argument of perigee: 79.1101°
revolutions per day: 15.21744325
mean anomaly at epoch: 281.2076°
orbit number at epoch: 6972

The dashed part of the orbit path shows where the satellite is in the earth's shadow,  

DLR